Location: St. Louis
(38.6270°N, 90.1994°W)
Time: 19:31:49
(UTC-06:00)

Vanguard 3 - Pass Details

Date: 29 November 2021
Orbit: 508 x 3260 km, 33.3° (Epoch: 19 January)

Event Time Altitude Azimuth Distance (km) Brightness Sun altitude
Exits shadow 04:08:41 12° 222° (SW) 5,973 11.2 -32.5°
Maximum altitude 04:26:09 50° 156° (SSE) 3,470 10.3 -29.1°
Drops below altitude 10° 04:39:59 10° 86° (E) 4,737 12.0 -26.4°
Sets 04:43:10 0° 82° (E) 5,420 12.6 -25.8°
